Historical Weather Data

Soule Park Golf Course
1033 East Ojai Ave
Ojai, CA 93023
Date ET
(Inches)
Rain
(Inches)
Temp °F
Humidity
Avg
Wind MPH
Avg
Solar Wm2
Avg
High Ave Low
2/1/18 0.10 0.00 82.5 60.4 41.2 44 1.7 162
2/2/18 0.10 0.00 86.5 61.8 45.6 44 1.5 160
2/3/18 0.11 0.00 85.4 62.1 43.7 46 2.0 170
2/4/18 0.12 0.00 86.0 63.5 46.7 45 2.0 171
2/5/18 0.11 0.00 82.6 60.0 45.2 56 2.2 175
2/6/18 0.09 0.00 76.8 55.9 40.0 71 2.1 173
2/7/18 0.12 0.00 83.0 60.7 42.5 46 2.0 183
2/8/18 0.13 0.00 86.7 62.4 42.8 40 2.0 191
2/9/18 0.12 0.00 80.9 60.1 44.1 51 2.0 194
2/10/18 0.04 0.00 60.9 51.6 44.3 88 1.7 72
2/11/18 0.12 0.00 74.4 53.8 37.7 63 2.5 201
2/12/18 0.10 0.00 62.2 50.1 37.5 71 2.4 198
2/13/18 0.09 0.00 64.7 51.7 40.9 67 2.9 172
2/14/18 0.09 0.07 67.6 54.3 44.7 76 1.9 169
2/15/18 0.12 0.01 72.6 53.9 38.6 55 2.1 211
2/16/18 0.13 0.00 73.2 53.3 33.8 42 2.1 222
2/17/18 0.14 0.00 74.9 54.8 37.5 44 2.1 224
2/18/18 0.11 0.00 67.4 51.1 35.5 65 2.1 216
2/19/18 0.12 0.00 57.8 47.2 34.7 39 3.3 215
2/20/18 0.12 0.00 58.3 44.0 29.1 39 2.8 236
2/21/18 0.12 0.00 59.2 45.0 30.0 51 2.5 233
2/22/18 0.11 0.00 60.0 44.6 29.3 62 2.6 227
2/23/18 0.13 0.00 58.9 45.4 31.7 43 3.2 240
2/24/18 0.12 0.00 60.7 44.2 27.5 46 2.3 236
2/25/18 0.14 0.00 67.8 48.6 31.4 46 2.6 233
2/26/18 0.12 0.01 64.6 48.5 32.8 61 3.0 229
2/27/18 0.10 0.00 57.0 43.0 31.0 68 2.2 214
2/28/18 0.12 0.00 60.9 44.9 27.3 66 2.2 240